N0HOT Weather Reports


Display with metric or nautical units.
time (UTC)temp
F
wind
direction
speed
MPH
gust
MPH
rain 1hr
in
rain 24hr
in
rain mn
in
humidity
%
barometer
mb
20260509222459 64 280 5.0 9.0 0.00 0.00 0.00 19 1008.3
20260509221955 64 53 4.0 6.0 0.00 0.00 0.00 19 1007.7
20260509221451 64 158 4.0 4.0 0.00 0.00 0.00 20 1008.0
20260509220948 64 310 5.0 6.0 0.00 0.00 0.00 19 1007.7
20260509220444 64 338 3.0 4.0 0.00 0.00 0.00 19 1007.7
20260509215940 64 40 6.0 9.0 0.00 0.00 0.00 17 1007.7
20260509215435 64 324 3.0 4.0 0.00 0.00 0.00 18 1007.7
20260509214933 65 282 5.0 7.0 0.00 0.00 0.00 18 1007.3
20260509214430 65 309 5.0 6.0 0.00 0.00 0.00 19 1007.3
20260509213927 66 73 2.0 3.0 0.00 0.00 0.00 21 1007.3
20260509213422 66 116 2.0 2.0 0.00 0.00 0.00 20 1007.3
20260509212920 66 72 3.0 4.0 0.00 0.00 0.00 22 1007.3
20260509212418 66 344 6.0 8.0 0.00 0.00 0.00 20 1007.3
20260509211914 66 250 2.0 2.0 0.00 0.00 0.00 23 1007.0
20260509211409 65 267 2.0 4.0 0.00 0.00 0.00 23 1007.3
20260509210906 65 256 2.0 2.0 0.00 0.00 0.00 23 1007.3
20260509210403 65 244 4.0 4.0 0.00 0.00 0.00 24 1007.0
20260509205858 65 285 4.0 4.0 0.00 0.00 0.00 22 1007.0
20260509205352 65 288 7.0 10.0 0.00 0.00 0.00 22 1007.0
20260509204849 65 311 6.0 7.0 0.00 0.00 0.00 24 1007.0
20260509204345 65 359 2.0 3.0 0.00 0.00 0.00 28 1007.0
20260509203841 65 16 5.0 7.0 0.00 0.00 0.00 24 1006.6
20260509203333 65 256 2.0 3.0 0.00 0.00 0.00 25 1006.6
20260509202829 64 282 6.0 9.0 0.00 0.00 0.00 24 1006.6
20260509202326 64 286 5.0 6.0 0.00 0.00 0.00 24 1006.6
20260509201825 65 307 10.0 14.0 0.00 0.00 0.00 24 1006.6
20260509201322 65 256 6.0 8.0 0.00 0.00 0.00 24 1006.6
20260509200818 65 320 7.0 10.0 0.00 0.00 0.00 24 1006.6
20260509200314 64 299 7.0 9.0 0.00 0.00 0.00 24 1006.3
20260509195811 64 10 4.0 6.0 0.00 0.00 0.00 25 1006.6
20260509195306 64 307 3.0 6.0 0.00 0.00 0.00 24 1006.6
20260509194805 64 339 4.0 7.0 0.00 0.00 0.00 26 1006.6
20260509194301 64 3 4.0 6.0 0.00 0.00 0.00 26 1006.6
20260509193759 64 253 4.0 7.0 0.00 0.00 0.00 27 1006.6
20260509193258 64 270 6.0 8.0 0.00 0.00 0.00 27 1006.3
20260509192755 64 1 9.0 11.0 0.00 0.00 0.00 27 1006.6
20260509192250 64 275 5.0 7.0 0.00 0.00 0.00 28 1006.3
20260509191745 64 347 4.0 6.0 0.00 0.00 0.00 27 1006.3
20260509191242 64 198 3.0 3.0 0.00 0.00 0.00 28 1006.3
20260509190738 64 291 1.0 2.0 0.00 0.00 0.00 30 1006.6
20260509190235 64 311 3.0 4.0 0.00 0.00 0.00 30 1006.3
20260509185733 63 294 2.0 2.0 0.00 0.00 0.00 31 1006.6
20260509185229 63 343 6.0 9.0 0.00 0.00 0.00 32 1006.6
20260509184727 63 346 2.0 3.0 0.00 0.00 0.00 31 1006.3
20260509184224 63 277 5.0 8.0 0.00 0.00 0.00 31 1006.0
20260509183720 63 355 2.0 3.0 0.00 0.00 0.00 33 1006.3
20260509183215 63 304 6.0 7.0 0.00 0.00 0.00 31 1006.0
20260509182711 63 44 8.0 9.0 0.00 0.00 0.00 32 1006.6
20260509182209 62 25 1.0 1.0 0.00 0.00 0.00 37 1006.3
20260509181706 62 183 1.0 2.0 0.00 0.00 0.00 33 1006.0
20260509181203 62 17 0.0 1.0 0.00 0.00 0.00 34 1006.0
20260509180700 62 283 4.0 6.0 0.00 0.00 0.00 34 1006.0
20260509180156 62 326 2.0 3.0 0.00 0.00 0.00 37 1006.3
20260509175653 62 217 4.0 4.0 0.00 0.00 0.00 38 1006.3
20260509175149 62 288 5.0 7.0 0.00 0.00 0.00 38 1006.0
20260509174645 62 323 6.0 7.0 0.00 0.00 0.00 36 1006.3
20260509174139 62 280 4.0 6.0 0.00 0.00 0.00 37 1006.0
20260509173636 62 259 3.0 4.0 0.00 0.00 0.00 37 1006.0
20260509173132 61 300 4.0 6.0 0.00 0.00 0.00 35 1006.0
20260509172629 61 359 6.0 6.0 0.00 0.00 0.00 37 1006.3
20260509172125 61 299 9.0 11.0 0.00 0.00 0.00 37 1006.0
20260509171621 61 332 5.0 6.0 0.00 0.00 0.00 39 1006.0
20260509171117 61 285 6.0 9.0 0.00 0.00 0.00 40 1006.0
20260509170614 61 190 1.0 2.0 0.00 0.00 0.00 40 1006.0
20260509170109 61 48 1.0 2.0 0.00 0.00 0.00 41 1006.0
20260509165608 61 276 6.0 8.0 0.00 0.00 0.00 39 1006.0
20260509165104 61 35 4.0 6.0 0.00 0.00 0.00 41 1006.3
20260509164600 61 11 4.0 6.0 0.00 0.00 0.00 41 1006.0
20260509164056 60 327 2.0 3.0 0.00 0.00 0.00 43 1006.0
20260509163554 60 54 3.0 7.0 0.00 0.00 0.00 42 1006.0
20260509163054 60 276 2.0 4.0 0.00 0.00 0.00 46 1006.0
20260509162552 60 266 8.0 9.0 0.00 0.00 0.00 43 1005.3
20260509162048 60 351 6.0 8.0 0.00 0.00 0.00 44 1006.0
20260509161544 60 330 5.0 7.0 0.00 0.00 0.00 44 1005.6
20260509161039 60 287 6.0 11.0 0.00 0.00 0.00 46 1005.6
20260509160536 60 290 2.0 3.0 0.00 0.00 0.00 48 1005.6
20260509160031 60 320 6.0 9.0 0.00 0.00 0.00 45 1005.6
20260509155527 60 6 2.0 3.0 0.00 0.00 0.00 46 1005.3
20260509155023 60 356 6.0 7.0 0.00 0.00 0.00 47 1005.3
20260509154520 60 277 6.0 8.0 0.00 0.00 0.00 44 1005.3
20260509154018 59 27 1.0 2.0 0.00 0.00 0.00 47 1005.3
20260509153514 59 277 5.0 7.0 0.00 0.00 0.00 48 1004.8
20260509153011 59 254 6.0 9.0 0.00 0.00 0.00 48 1004.8
20260509152507 59 269 3.0 4.0 0.00 0.00 0.00 49 1004.8
20260509152004 59 88 1.0 2.0 0.00 0.00 0.00 50 1004.8
20260509151500 59 319 5.0 7.0 0.00 0.00 0.00 50 1005.3
20260509150959 59 34 5.0 7.0 0.00 0.00 0.00 50 1004.8
20260509150455 59 279 4.0 6.0 0.00 0.00 0.00 50 1004.8
20260509145954 59 317 3.0 3.0 0.00 0.00 0.00 50 1004.5
20260509145449 58 96 3.0 3.0 0.00 0.00 0.00 50 1004.5
20260509144944 58 331 3.0 4.0 0.00 0.00 0.00 49 1004.5
20260509144442 58 34 3.0 3.0 0.00 0.00 0.00 47 1004.5
20260509143938 57 284 2.0 2.0 0.00 0.00 0.00 45 1004.2
20260509143436 56 265 1.0 2.0 0.00 0.00 0.00 45 1004.5
20260509142932 56 225 3.0 4.0 0.00 0.00 0.00 44 1004.2
20260509142428 55 239 2.0 2.0 0.00 0.00 0.00 45 1004.5
20260509141924 54 312 1.0 2.0 0.00 0.00 0.00 45 1004.5
20260509141421 53 330 1.0 1.0 0.00 0.00 0.00 45 1004.5
20260509140918 53 266 3.0 6.0 0.00 0.00 0.00 47 1004.8
20260509140414 52 261 2.0 3.0 0.00 0.00 0.00 46 1004.8
20260509135913 52 251 2.0 2.0 0.00 0.00 0.00 47 1004.8
20260509135410 51 27 2.0 3.0 0.00 0.00 0.00 48 1004.8
20260509134907 51 302 1.0 2.0 0.00 0.00 0.00 49 1004.8
20260509134405 50 280 2.0 2.0 0.00 0.00 0.00 50 1004.8
20260509133901 50 294 1.0 2.0 0.00 0.00 0.00 50 1004.5
20260509133358 50 320 0.0 1.0 0.00 0.00 0.00 55 1004.5
20260509132857 50 272 1.0 1.0 0.00 0.00 0.00 55 1004.5
20260509132354 50 264 1.0 1.0 0.00 0.00 0.00 54 1004.8
20260509131851 49 284 1.0 1.0 0.00 0.00 0.00 53 1005.3
20260509131348 49 261 3.0 3.0 0.00 0.00 0.00 54 1004.8
20260509130844 49 282 2.0 2.0 0.00 0.00 0.00 54 1004.8
20260509130339 49 79 1.0 1.0 0.00 0.00 0.00 51 1004.5
20260509125837 48 79 0.0 1.0 0.00 0.00 0.00 51 1004.5
20260509125333 49 79 2.0 2.0 0.00 0.00 0.00 56 1004.2
20260509124830 49 96 0.0 0.0 0.00 0.00 0.00 55 1004.5
20260509124327 49 116 0.0 1.0 0.00 0.00 0.00 61 1004.2
20260509123825 49 34 0.0 0.0 0.00 0.00 0.00 56 1004.8
20260509123322 48 34 0.0 1.0 0.00 0.00 0.00 57 1004.8
20260509122817 48 335 0.0 0.0 0.00 0.00 0.00 55 1004.8
20260509122315 48 225 0.0 1.0 0.00 0.00 0.00 55 1004.8
20260509121811 48 35 0.0 0.0 0.00 0.00 0.00 51 1004.5
20260509121309 47 35 0.0 1.0 0.00 0.00 0.00 51 1004.8
20260509120807 46 35 0.0 0.0 0.00 0.00 0.00 52 1004.8
20260509120304 46 34 0.0 1.0 0.00 0.00 0.00 54 1004.8
20260509115802 45 347 1.0 1.0 0.00 0.00 0.00 54 1004.8
20260509115259 45 311 1.0 1.0 0.00 0.00 0.00 56 1004.8
20260509114757 44 87 1.0 1.0 0.00 0.00 0.00 56 1004.2
20260509114255 44 356 2.0 3.0 0.00 0.00 0.00 56 1004.8
20260509113754 44 38 0.0 0.0 0.00 0.00 0.00 63 1003.5
20260509113251 44 38 0.0 0.0 0.00 0.00 0.00 63 1003.5
20260509112747 44 38 0.0 0.0 0.00 0.00 0.00 61 1003.5
20260509112245 45 38 1.0 1.0 0.00 0.00 0.00 62 1003.2
20260509111742 45 38 0.0 0.0 0.00 0.00 0.00 61 1003.2
20260509111239 45 38 1.0 1.0 0.00 0.00 0.00 60 1003.2
20260509110736 45 38 1.0 1.0 0.00 0.00 0.00 60 1003.2
20260509110232 45 38 0.0 0.0 0.00 0.00 0.00 56 1002.8
20260509105731 44 38 0.0 0.0 0.00 0.00 0.00 55 1002.8
20260509105228 44 38 0.0 0.0 0.00 0.00 0.00 55 1002.8
20260509104725 44 38 0.0 0.0 0.00 0.00 0.00 54 1003.2
20260509104222 44 38 0.0 0.0 0.00 0.00 0.00 55 1003.2
20260509103720 44 38 0.0 0.0 0.00 0.00 0.00 57 1003.2
20260509103216 45 38 0.0 0.0 0.00 0.00 0.00 57 1002.8
20260509102715 45 38 0.0 0.0 0.00 0.00 0.00 57 1002.8
20260509102211 46 38 1.0 1.0 0.00 0.00 0.00 58 1002.8
20260509101708 46 38 0.0 0.0 0.00 0.00 0.00 54 1003.2
20260509101204 47 38 0.0 0.0 0.00 0.00 0.00 57 1002.8
20260509100702 47 38 0.0 0.0 0.00 0.00 0.00 53 1002.8
20260509100158 47 38 0.0 1.0 0.00 0.00 0.00 53 1002.5
20260509095656 47 332 0.0 1.0 0.00 0.00 0.00 50 1002.8
20260509095153 47 3 0.0 1.0 0.00 0.00 0.00 50 1002.5
20260509094649 48 340 1.0 1.0 0.00 0.00 0.00 50 1003.2
20260509094146 48 338 2.0 2.0 0.00 0.00 0.00 52 1002.8
20260509093644 49 32 2.0 2.0 0.00 0.00 0.00 53 1002.8
20260509093141 50 33 0.0 0.0 0.00 0.00 0.00 52 1002.5
20260509092640 50 33 0.0 0.0 0.00 0.00 0.00 47 1002.5
20260509092138 50 33 0.0 0.0 0.00 0.00 0.00 46 1002.8
20260509091635 51 33 1.0 1.0 0.00 0.00 0.00 46 1002.8
20260509091131 51 33 1.0 1.0 0.00 0.00 0.00 46 1003.2
20260509090629 51 33 0.0 0.0 0.00 0.00 0.00 44 1002.8
20260509090126 52 33 1.0 1.0 0.00 0.00 0.00 44 1002.8
20260509085623 52 32 1.0 1.0 0.00 0.00 0.00 43 1002.8
20260509085119 52 33 0.0 1.0 0.00 0.00 0.00 43 1002.8
20260509084617 52 33 0.0 0.0 0.00 0.00 0.00 42 1002.8
20260509084114 53 33 0.0 0.0 0.00 0.00 0.00 41 1002.8
20260509083611 53 33 0.0 0.0 0.00 0.00 0.00 41 1002.8
20260509083107 53 33 0.0 0.0 0.00 0.00 0.00 41 1002.8
20260509082605 53 33 0.0 0.0 0.00 0.00 0.00 41 1002.5
20260509082101 53 33 0.0 0.0 0.00 0.00 0.00 40 1002.8
20260509081559 54 33 0.0 0.0 0.00 0.00 0.00 40 1002.8
20260509081055 54 32 0.0 1.0 0.00 0.00 0.00 39 1002.8
20260509080553 54 32 0.0 1.0 0.00 0.00 0.00 39 1003.2
20260509080052 54 32 0.0 0.0 0.00 0.00 0.00 39 1003.2
20260509075549 55 32 0.0 0.0 0.00 0.00 0.00 39 1003.2
20260509075047 55 32 0.0 0.0 0.00 0.00 0.00 38 1003.2
20260509074544 55 32 0.0 0.0 0.00 0.00 0.00 37 1003.2
20260509074040 56 32 0.0 0.0 0.00 0.00 0.00 37 1002.8
20260509073536 56 32 0.0 0.0 0.00 0.00 0.00 36 1002.8
20260509073033 56 32 0.0 0.0 0.00 0.00 0.00 36 1002.8
20260509072530 56 32 0.0 0.0 0.00 0.00 0.00 35 1002.8
20260509072026 57 32 0.0 0.0 0.00 0.00 0.00 34 1002.5
20260509071523 57 32 0.0 0.0 0.00 0.00 0.00 34 1002.5
20260509071021 57 32 0.0 0.0 0.00 0.00 0.00 34 1002.8
20260509070518 57 33 0.0 0.0 0.00 0.00 0.00 35 1002.8
20260509070014 57 33 0.0 0.0 0.00 0.00 0.00 35 1002.8
20260509065509 57 33 0.0 1.0 0.00 0.00 0.00 35 1002.8
20260509065006 58 297 1.0 2.0 0.00 0.00 0.00 34 1002.8
20260509064504 57 253 1.0 2.0 0.00 0.00 0.00 33 1002.8
20260509064002 57 243 3.0 3.0 0.00 0.00 0.00 33 1002.8
20260509063457 58 278 1.0 1.0 0.00 0.00 0.00 35 1002.8
20260509062954 58 334 1.0 1.0 0.00 0.00 0.00 36 1002.8
20260509062451 58 266 0.0 1.0 0.00 0.00 0.00 34 1002.8
20260509061949 58 263 2.0 2.0 0.00 0.00 0.00 36 1002.8
20260509061446 59 182 1.0 1.0 0.00 0.00 0.00 34 1002.8
20260509060943 59 285 2.0 2.0 0.00 0.00 0.00 33 1002.5
20260509060441 59 290 1.0 1.0 0.00 0.00 0.00 34 1002.5
20260509055936 59 298 1.0 2.0 0.00 0.00 0.00 33 1002.5
20260509055431 59 299 1.0 1.0 0.00 0.00 0.00 33 1002.1
20260509054928 59 234 1.0 1.0 0.00 0.00 0.00 33 1002.5
20260509054424 59 282 2.0 3.0 0.00 0.00 0.00 31 1002.1
20260509053923 59 256 3.0 3.0 0.00 0.00 0.00 32 1002.1
20260509053420 59 272 2.0 2.0 0.00 0.00 0.00 32 1002.1
20260509052917 59 263 4.0 4.0 0.00 0.00 0.00 33 1002.1
20260509052414 59 214 2.0 2.0 0.00 0.00 0.00 32 1002.1
20260509051913 59 267 2.0 2.0 0.00 0.00 0.00 32 1002.1
20260509051405 60 283 1.0 2.0 0.00 0.00 0.00 34 1002.1
20260509050901 60 264 1.0 1.0 0.00 0.00 0.00 32 1001.8
20260509050358 60 275 2.0 3.0 0.00 0.00 0.00 34 1002.1
20260509045855 60 254 1.0 1.0 0.00 0.00 0.00 34 1002.1
20260509045352 60 273 1.0 2.0 0.00 0.00 0.00 33 1002.1
20260509044849 61 264 2.0 3.0 0.00 0.00 0.00 33 1002.1
20260509044347 61 256 3.0 4.0 0.00 0.00 0.00 32 1002.1
20260509043844 61 225 2.0 2.0 0.00 0.00 0.00 34 1001.8
20260509043339 61 227 3.0 4.0 0.00 0.00 0.00 34 1001.8
20260509042835 61 279 5.0 6.0 0.00 0.00 0.00 31 1001.8
20260509042332 62 270 2.0 2.0 0.00 0.00 0.00 30 1001.8
20260509041829 62 302 1.0 2.0 0.00 0.00 0.00 30 1002.1
20260509041325 62 288 1.0 1.0 0.00 0.00 0.00 30 1001.8
20260509040824 62 301 2.0 4.0 0.00 0.00 0.00 30 1001.8
20260509040321 62 285 2.0 2.0 0.00 0.00 0.00 30 1001.8
20260509035818 62 314 2.0 2.0 0.00 0.00 0.00 29 1001.8
20260509035315 63 348 0.0 1.0 0.00 0.00 0.00 29 1001.8
20260509034811 63 281 2.0 2.0 0.00 0.00 0.00 29 1001.8
20260509034309 63 313 0.0 1.0 0.00 0.00 0.00 30 1001.5
20260509033806 63 289 1.0 1.0 0.00 0.00 0.00 28 1001.5
20260509033303 63 289 2.0 2.0 0.00 0.00 0.00 27 1001.5
20260509032800 63 286 4.0 6.0 0.00 0.00 0.00 27 1001.5
20260509032257 63 353 1.0 1.0 0.00 0.00 0.00 28 1001.5
20260509031755 64 343 1.0 1.0 0.00 0.00 0.00 26 1001.5
20260509031252 64 307 2.0 2.0 0.00 0.00 0.00 26 1001.5
20260509030749 64 337 1.0 1.0 0.00 0.00 0.00 26 1001.5
20260509030247 64 333 1.0 2.0 0.00 0.00 0.00 27 1001.5
20260509025744 64 27 0.0 1.0 0.00 0.00 0.00 26 1001.5
20260509025239 64 27 0.0 0.0 0.00 0.00 0.00 25 1001.5
20260509024734 65 27 1.0 1.0 0.00 0.00 0.00 25 1001.5
20260509024231 65 27 0.0 0.0 0.00 0.00 0.00 25 1001.5
20260509023728 65 27 1.0 1.0 0.00 0.00 0.00 24 1001.5
20260509023225 66 27 0.0 0.0 0.00 0.00 0.00 24 1001.5
20260509022721 66 27 0.0 0.0 0.00 0.00 0.00 24 1001.5
20260509022219 66 3 3.0 3.0 0.00 0.00 0.00 23 1001.5
20260509021716 66 326 1.0 1.0 0.00 0.00 0.00 23 1001.1
20260509021213 67 336 1.0 1.0 0.00 0.00 0.00 23 1001.5
20260509020711 67 335 1.0 1.0 0.00 0.00 0.00 23 1001.5
20260509020208 67 318 1.0 1.0 0.00 0.00 0.00 23 1001.5
20260509015706 67 277 2.0 2.0 0.00 0.00 0.00 22 1001.5
20260509015204 67 332 0.0 1.0 0.00 0.00 0.00 23 1001.1
20260509014700 67 302 2.0 2.0 0.00 0.00 0.00 21 1001.1
20260509014157 67 301 3.0 4.0 0.00 0.00 0.00 20 1001.1
20260509013654 68 292 1.0 1.0 0.00 0.00 0.00 21 1001.1
20260509013149 68 356 0.0 1.0 0.00 0.00 0.00 20 1000.7
20260509012646 69 28 0.0 0.0 0.00 0.00 0.00 20 1001.1
20260509012143 69 28 1.0 1.0 0.00 0.00 0.00 20 1000.7
20260509011641 69 28 0.0 0.0 0.00 0.00 0.00 19 1000.7
20260509011138 69 346 1.0 1.0 0.00 0.00 0.00 19 1001.1
20260509010636 69 352 2.0 2.0 0.00 0.00 0.00 19 1000.7
20260509010132 70 346 1.0 1.0 0.00 0.00 0.00 19 1000.7
20260509005630 70 281 2.0 3.0 0.00 0.00 0.00 18 1000.7
20260509005126 70 288 3.0 3.0 0.00 0.00 0.00 18 1001.1
20260509004621 70 289 2.0 3.0 0.00 0.00 0.00 17 1000.7
20260509004119 71 289 3.0 3.0 0.00 0.00 0.00 17 1000.7
20260509003618 71 320 5.0 7.0 0.00 0.00 0.00 17 1000.7
20260509003114 71 284 3.0 4.0 0.00 0.00 0.00 17 1000.7
20260509002612 71 270 3.0 3.0 0.00 0.00 0.00 18 1000.7
20260509002109 71 263 5.0 7.0 0.00 0.00 0.00 17 1000.7
20260509001607 71 248 5.0 6.0 0.00 0.00 0.00 18 1000.3
20260509001102 71 306 4.0 4.0 0.00 0.00 0.00 17 1000.7
20260509000601 71 278 3.0 3.0 0.00 0.00 0.00 17 1000.7
20260509000056 71 284 6.0 8.0 0.00 0.00 0.00 16 1000.7
20260508235554 71 285 3.0 4.0 0.00 0.00 0.00 16 1000.7
20260508235050 72 288 2.0 3.0 0.00 0.00 0.00 16 1001.1
20260508234548 72 264 5.0 7.0 0.00 0.00 0.00 17 1001.1
20260508234044 72 298 4.0 4.0 0.00 0.00 0.00 16 1001.1
20260508233544 73 289 4.0 6.0 0.00 0.00 0.00 15 1001.5
20260508233041 73 269 4.0 6.0 0.00 0.00 0.00 16 1001.5
20260508232538 73 290 6.0 7.0 0.00 0.00 0.00 15 1001.1
20260508232035 73 271 2.0 3.0 0.00 0.00 0.00 16 1001.5
20260508231532 73 339 2.0 2.0 0.00 0.00 0.00 16 1001.1
20260508231029 73 261 4.0 7.0 0.00 0.00 0.00 14 1001.8
20260508230526 73 265 6.0 8.0 0.00 0.00 0.00 15 1001.5
20260508230022 73 292 4.0 4.0 0.00 0.00 0.00 14 1001.5
20260508225520 73 282 5.0 6.0 0.00 0.00 0.00 14 1001.5
20260508225016 73 275 4.0 4.0 0.00 0.00 0.00 15 1001.8
20260508224514 73 301 7.0 10.0 0.00 0.00 0.00 14 1001.5
20260508224011 73 267 3.0 4.0 0.00 0.00 0.00 16 1001.5
20260508223509 73 252 6.0 7.0 0.00 0.00 0.00 14 1001.5
20260508223006 73 284 4.0 7.0 0.00 0.00 0.00 14 1001.8